STARLINK-35975

Last updated on Fri Dec 19 2025 00:02:05 GMT+0000 (Coordinated Universal Time)

1 66525U 25265K 25352.47843879 .00027513 00000+0 66301-3 0 9997 2 66525 43.0015 20.8742 0001894 281.2263 78.8381 15.40721976 4649
UTC large
Height (km)
Speed (km/s)
/
Latitude / Longitude
Inclination (degrees)
Orbital Period (minutes)
Azimuth
Elevation
Range (km)
Doppler Factor

Next 0 passes for location: London (51.5072 / 0.1276)

Sorry there are no passes over London.